Scappoose, OR

1:30 AM PDT on October 18, 2017 (GMT -0700)
Scappoose Industrial

Weather History for KSPB - November, 2012

Change the Weather History Date:

Sunday, November 11, 2012

  Actual Average Record
Temperature  
Mean Temperature 40 °F -  
Max Temperature 45 °F - 63 °F (2016)
Min Temperature 36 °F - 24 °F (2014)
Degree Days  
Heating Degree Days 24    
Month to date heating degree days 180  
Since 1 July heating degree days 706  
Cooling Degree Days 0    
Month to date cooling degree days 0  
Year to date cooling degree days 245  
Moisture  
Dew Point 40 °F    
Average Humidity 90    
Maximum Humidity 100    
Minimum Humidity 79    
Precipitation  
Precipitation 0.61 in - 0.78 in (2008)
Month to date precipitation 1.32  
Year to date precipitation 38.28  
Sea Level Pressure  
Sea Level Pressure 30.21 in    
Wind  
Wind Speed 3 mph (SSE)    
Max Wind Speed 10 mph    
Max Gust Speed 15 mph    
Visibility 7 miles    
Events Rain    
T = Trace of Precipitation, MM = Missing Value Source: NWS Daily Summary

Daily Weather History Graph

Daily Weather History Graph

Search for Another Location

Airport or City:

Trip Planner

Search our weather history database for the weather conditions in past years. The results will help you decide how hot, cold, wet, or windy it might be!

Date:

Astronomy

Nov. 11, 2012 Rise Set
Actual Time 7:06 AM PST 4:44 PM PST
Civil Twilight 6:34 AM PST 5:16 PM PST
Nautical Twilight 5:58 AM PST 5:51 PM PST
Astronomical Twilight 5:23 AM PST 6:26 PM PST
Moon 4:20 AM PST (11/11) 3:15 PM PST (11/11)
Length of Visible Light 10h 41m
Length of Day
9h 37m
Waning Crescent, 6% of the Moon is Illuminated
Nov 11
Waning Crescent
Nov 13
New
Nov 20
First Quarter
Nov 28
Full
Dec 6
Last Quarter

Hourly Weather History & Observations

Time (PST) Temp. Windchill Dew Point Humidity Pressure Visibility Wind Dir Wind Speed Gust Speed Precip Events Conditions
12:53 AM 37.0 °F - 34.0 °F 89% 30.24 in 10.0 mi Calm Calm - N/A   Overcast
1:53 AM 37.0 °F - 35.1 °F 93% 30.25 in 10.0 mi Calm Calm - N/A   Overcast
2:53 AM 37.9 °F - 35.1 °F 89% 30.25 in 9.0 mi Calm Calm - N/A   Overcast
3:53 AM 39.0 °F - 36.0 °F 89% 30.24 in 10.0 mi Calm Calm - N/A   Overcast
4:53 AM 39.0 °F - 36.0 °F 89% 30.24 in 10.0 mi Calm Calm - N/A   Overcast
5:15 AM 37.4 °F - 35.6 °F 93% 30.24 in 10.0 mi Calm Calm - N/A   Scattered Clouds
6:53 AM 36.0 °F - 35.1 °F 97% 30.25 in 6.0 mi Calm Calm - N/A   Scattered Clouds
7:53 AM 37.9 °F - 36.0 °F 93% 30.25 in 8.0 mi Calm Calm - N/A   Overcast
8:53 AM 41.0 °F - 36.0 °F 82% 30.25 in 10.0 mi Calm Calm - N/A   Overcast
10:53 AM 45.0 °F 42.6 °F 39.0 °F 80% 30.25 in 10.0 mi SSE 4.6 mph - 0.01 in Rain Light Rain
11:53 AM 45.0 °F 41.8 °F 39.9 °F 82% 30.25 in 10.0 mi SSE 5.8 mph - 0.01 in Rain Light Rain
12:53 PM 45.0 °F 41.8 °F 41.0 °F 86% 30.23 in 7.0 mi SE 5.8 mph - 0.02 in Rain Light Rain
1:53 PM 45.0 °F 42.6 °F 41.0 °F 86% 30.22 in 7.0 mi South 4.6 mph - 0.04 in Rain Light Rain
2:28 PM 44.6 °F 43.1 °F 42.8 °F 93% 30.22 in 8.0 mi South 3.5 mph - 0.03 in Rain Light Rain
2:53 PM 45.0 °F - 42.1 °F 90% 30.22 in 6.0 mi Calm Calm - 0.05 in Rain Light Rain
3:00 PM 44.6 °F - 42.8 °F 93% 30.21 in 6.0 mi Calm Calm - 0.01 in Rain Light Rain
3:53 PM 44.1 °F 42.5 °F 42.1 °F 93% 30.21 in 6.0 mi SSE 3.5 mph - 0.04 in Rain Light Rain
4:40 PM 44.6 °F 43.1 °F 42.8 °F 93% 30.20 in 7.0 mi SSE 3.5 mph - 0.03 in Rain Light Rain
4:53 PM 44.1 °F 42.5 °F 42.1 °F 93% 30.20 in 7.0 mi Variable 3.5 mph - 0.04 in Rain Light Rain
5:53 PM 44.1 °F 40.1 °F 42.1 °F 93% 30.20 in 7.0 mi South 6.9 mph - 0.06 in Rain Light Rain
6:43 PM 44.6 °F 42.2 °F 42.8 °F 93% 30.19 in 6.0 mi South 4.6 mph - 0.06 in Rain Light Rain
6:53 PM 44.1 °F 41.5 °F 42.1 °F 93% 30.19 in 6.0 mi Variable 4.6 mph - 0.07 in Rain Light Rain
7:53 PM 44.1 °F 39.0 °F 42.1 °F 93% 30.18 in 6.0 mi SSE 9.2 mph - 0.07 in Rain Light Rain
8:02 PM 44.6 °F 40.2 °F 42.8 °F 93% 30.17 in 6.0 mi SSE 8.1 mph - 0.01 in Rain Light Rain
8:41 PM 44.6 °F 40.7 °F 42.8 °F 93% 30.17 in 8.0 mi SSE 6.9 mph - 0.03 in Rain Light Rain
8:53 PM 44.1 °F 40.1 °F 42.1 °F 93% 30.17 in 7.0 mi SSE 6.9 mph - 0.04 in Rain Light Rain
9:12 PM 44.6 °F 40.2 °F 42.8 °F 93% 30.17 in 10.0 mi SSE 8.1 mph - 0.01 in Rain Light Rain
9:39 PM 44.6 °F 41.4 °F 42.8 °F 93% 30.17 in 5.0 mi SSE 5.8 mph - 0.02 in Rain Light Rain
9:53 PM 44.1 °F 40.1 °F 42.1 °F 93% 30.17 in 5.0 mi South 6.9 mph - 0.03 in Rain Light Rain
10:30 PM 44.6 °F 41.4 °F 42.8 °F 93% 30.17 in 4.0 mi SSE 5.8 mph - 0.04 in Rain Rain
10:39 PM 44.6 °F 43.1 °F 42.8 °F 93% 30.17 in 4.0 mi Variable 3.5 mph - 0.06 in Rain Rain
10:53 PM 44.1 °F 40.8 °F 43.0 °F 96% 30.17 in 6.0 mi South 5.8 mph - 0.08 in Rain Light Rain
11:53 PM 45.0 °F 41.8 °F 43.0 °F 93% 30.17 in 8.0 mi South 5.8 mph - 0.04 in Rain Light Rain